WXM80 ListenWXM80 Stop

You find our weather info also at:

UK Metoffice

WeatherCloud

Weather Underground

Northeastern Weather Network

AWEKAS

Citizen Weather Observer Program (CWOP)

HAMweather, WeatherForYou, PWS Weather


Weather Underground History page Text

Daily Summary for May 1, 2017 Units:  Metric    English   Both
« Previous Day
Next Day »
Daily Weekly Monthly Yearly Custom
  High: Low: Average:
Temperature: 22.3 °C 9.1 °C 13.6 °C
Dew Point: 18 °C 7.2 °C 11.8 °C
Humidity: 98 % 74 % 89 %
Wind Speed: 15.4 km/h 0 km/h 5 km/h
Wind Gust: 32.2 km/h - -
Wind:- - ESE
Pressure: 1020.5 hPa 1003.3 hPa -
Precipitation: 0.25 mm    
Historical Graphs
 
 
Tabular Data for May 1, 2017
Time Temperature Dew Point Pressure Wind Wind Speed Wind Gust Humidity Rainfall Rate (Hourly)
00:01 10.4 °C 7.2 °C 1020.5 hPa ENE 1.6 km/h 1.9 km/h 80 % 0 mm
00:06 10.5 °C 7.2 °C 1020.5 hPa ENE 3.5 km/h 5.6 km/h 80 % 0 mm
00:11 10.5 °C 7.4 °C 1020.5 hPa ENE 3.2 km/h 3.7 km/h 81 % 0 mm
00:17 10.4 °C 7.3 °C 1020.5 hPa ENE 1.9 km/h 5.6 km/h 81 % 0 mm
00:22 10.4 °C 7.3 °C 1020.5 hPa East 2.3 km/h 7.4 km/h 81 % 0 mm
00:27 10.4 °C 7.3 °C 1020.2 hPa East 1.6 km/h 3.7 km/h 81 % 0 mm
00:32 10.4 °C 7.4 °C 1020.2 hPa East 4.7 km/h 7.4 km/h 82 % 0 mm
00:37 10.4 °C 7.5 °C 1020.2 hPa East 2.1 km/h 4.8 km/h 82 % 0 mm
00:42 10.4 °C 7.6 °C 1020.2 hPa ESE 3.7 km/h 8 km/h 83 % 0 mm
00:47 10.4 °C 7.8 °C 1020.2 hPa ESE 4 km/h 5.6 km/h 84 % 0 mm
00:52 10.3 °C 7.7 °C 1020.2 hPa East 2.7 km/h 5.6 km/h 84 % 0 mm
00:57 10.3 °C 7.7 °C 1020.2 hPa ESE 0.8 km/h 3.7 km/h 84 % 0 mm
01:02 10.3 °C 7.9 °C 1019.9 hPa ESE 3.5 km/h 4.8 km/h 85 % 0 mm
01:07 10.3 °C 8.1 °C 1019.9 hPa ESE 2.7 km/h 5.6 km/h 86 % 0 mm
01:12 10.2 °C 8 °C 1019.5 hPa ESE 4.2 km/h 5.6 km/h 86 % 0 mm
01:18 10.2 °C 8.1 °C 1019.5 hPa East 5 km/h 8 km/h 87 % 0 mm
01:23 10.1 °C 8.1 °C 1019.5 hPa ENE 2.4 km/h 5.6 km/h 87 % 0 mm
01:28 10.1 °C 8.2 °C 1019.2 hPa SE 1.6 km/h 5.6 km/h 88 % 0 mm
01:33 10 °C 8.1 °C 1019.2 hPa East 2.1 km/h 7.4 km/h 88 % 0 mm
01:38 9.9 °C 8.2 °C 1018.8 hPa East 3.5 km/h 5.6 km/h 89 % 0 mm
01:43 9.8 °C 8.1 °C 1019.2 hPa ENE 2.7 km/h 4.8 km/h 89 % 0 mm
01:48 9.8 °C 8.2 °C 1019.2 hPa East 3.2 km/h 5.6 km/h 90 % 0 mm
01:53 9.7 °C 8.2 °C 1018.8 hPa ENE 2.3 km/h 4.8 km/h 90 % 0 mm
01:58 9.7 °C 8.3 °C 1019.2 hPa ENE 3.1 km/h 5.6 km/h 91 % 0 mm
02:03 9.6 °C 8.2 °C 1018.8 hPa ENE 3.5 km/h 5.6 km/h 91 % 0 mm
02:08 9.6 °C 8.3 °C 1018.5 hPa ENE 3.1 km/h 5.6 km/h 92 % 0 mm
02:09 9.6 °C 8.3 °C 1018.5 hPa ENE 2.7 km/h 5.6 km/h 92 % 0 mm
02:14 9.6 °C 8.3 °C 1018.5 hPa ENE 2.3 km/h 4.8 km/h 92 % 0 mm
02:19 9.4 °C 8.2 °C 1018.5 hPa ENE 2.9 km/h 5.6 km/h 92 % 0 mm
02:24 9.4 °C 8.4 °C 1018.2 hPa ENE 3.5 km/h 3.7 km/h 93 % 0 mm
02:29 9.4 °C 8.3 °C 1018.2 hPa ENE 3.1 km/h 5.6 km/h 93 % 0 mm
02:34 9.4 °C 8.4 °C 1018.2 hPa East 3.1 km/h 5.6 km/h 94 % 0 mm
02:39 9.4 °C 8.4 °C 1018.2 hPa ENE 2.4 km/h 5.6 km/h 94 % 0 mm
02:45 9.3 °C 8.4 °C 1018.2 hPa ENE 3.2 km/h 4.8 km/h 94 % 0 mm
02:50 9.3 °C 8.4 °C 1018.2 hPa ENE 3.4 km/h 5.6 km/h 94 % 0 mm
02:55 9.3 °C 8.4 °C 1018.2 hPa ENE 3.4 km/h 5.6 km/h 94 % 0 mm
03:00 9.3 °C 8.4 °C 1018.2 hPa ENE 2.6 km/h 5.6 km/h 94 % 0 mm
03:05 9.3 °C 8.4 °C 1018.2 hPa NE 2.3 km/h 5.6 km/h 94 % 0 mm
03:10 9.3 °C 8.5 °C 1017.8 hPa ENE 2.9 km/h 5.6 km/h 95 % 0 mm
03:15 9.3 °C 8.5 °C 1017.5 hPa ENE 3.5 km/h 5.6 km/h 95 % 0 mm
03:20 9.3 °C 8.5 °C 1017.5 hPa ENE 2.9 km/h 5.6 km/h 95 % 0 mm
03:25 9.3 °C 8.5 °C 1017.2 hPa East 2.3 km/h 5.6 km/h 95 % 0 mm
03:30 9.3 °C 8.5 °C 1017.5 hPa ENE 3.9 km/h 5.6 km/h 95 % 0 mm
03:35 9.2 °C 8.4 °C 1017.2 hPa ENE 3.7 km/h 5.6 km/h 95 % 0 mm
03:40 9.2 °C 8.4 °C 1017.2 hPa ENE 2.1 km/h 5.6 km/h 95 % 0 mm
03:45 9.2 °C 8.4 °C 1017.2 hPa ENE 1.6 km/h 8 km/h 95 % 0 mm
03:51 9.2 °C 8.4 °C 1017.2 hPa ENE 1.6 km/h 4.8 km/h 95 % 0 mm
03:55 9.2 °C 8.4 °C 1017.2 hPa ENE 1.4 km/h 3.7 km/h 95 % 0 mm
04:00 9.2 °C 8.4 °C 1017.2 hPa ENE 3.9 km/h 11.1 km/h 95 % 0 mm
04:05 9.2 °C 8.4 °C 1016.8 hPa ENE 4.8 km/h 11.3 km/h 95 % 0 mm
04:10 9.1 °C 8.5 °C 1016.8 hPa ENE 5.3 km/h 8 km/h 96 % 0 mm
04:15 9.1 °C 8.5 °C 1016.8 hPa ENE 3.2 km/h 8 km/h 96 % 0 mm
04:21 9.1 °C 8.5 °C 1016.5 hPa ENE 3.2 km/h 9.7 km/h 96 % 0 mm
04:26 9.1 °C 8.5 °C 1016.5 hPa ENE 4.8 km/h 8 km/h 96 % 0 mm
04:31 9.1 °C 8.5 °C 1016.5 hPa ENE 4.8 km/h 11.3 km/h 96 % 0 mm
04:36 9.1 °C 8.5 °C 1016.5 hPa ENE 3.2 km/h 11.3 km/h 96 % 0 mm
04:41 9.1 °C 8.5 °C 1016.5 hPa ENE 3.2 km/h 6.4 km/h 96 % 0 mm
04:45 9.2 °C 8.6 °C 1016.1 hPa ENE 1.6 km/h 4.8 km/h 96 % 0 mm
04:50 9.2 °C 8.6 °C 1016.1 hPa East 1.6 km/h 4.8 km/h 96 % 0 mm
04:55 9.2 °C 8.6 °C 1016.1 hPa East 1.6 km/h 3.2 km/h 96 % 0 mm
05:01 9.3 °C 8.7 °C 1016.1 hPa East 2.6 km/h 3.7 km/h 96 % 0 mm
05:06 9.3 °C 8.7 °C 1015.8 hPa East 1.9 km/h 3.7 km/h 96 % 0 mm
05:11 9.3 °C 8.7 °C 1015.5 hPa East 1.9 km/h 3.7 km/h 96 % 0 mm
05:16 9.3 °C 8.7 °C 1015.5 hPa East 2.6 km/h 5.6 km/h 96 % 0 mm
05:17 9.3 °C 8.7 °C 1015.5 hPa East 0.8 km/h 3.7 km/h 96 % 0 mm
05:22 9.3 °C 8.7 °C 1015.8 hPa ENE 1.9 km/h 4.8 km/h 96 % 0 mm
05:27 9.3 °C 8.7 °C 1015.8 hPa ENE 0.6 km/h 3.7 km/h 96 % 0 mm
05:32 9.3 °C 8.7 °C 1015.8 hPa ENE 0.5 km/h 1.9 km/h 96 % 0 mm
05:38 9.3 °C 8.7 °C 1015.5 hPa ENE 1.4 km/h 1.9 km/h 96 % 0 mm
05:43 9.3 °C 8.7 °C 1015.5 hPa ENE 0.6 km/h 3.2 km/h 96 % 0 mm
05:48 9.3 °C 8.9 °C 1015.1 hPa ENE 0.2 km/h 1.9 km/h 97 % 0 mm
05:53 9.3 °C 8.9 °C 1015.1 hPa ENE 0.2 km/h 1.9 km/h 97 % 0 mm
05:58 9.3 °C 8.9 °C 1015.1 hPa Calm     97 % 0 mm
06:03 9.3 °C 8.9 °C 1015.1 hPa ENE 0.2 km/h 1.6 km/h 97 % 0 mm
06:08 9.3 °C 8.9 °C 1015.1 hPa ENE 2.3 km/h 3.7 km/h 97 % 0 mm
06:13 9.3 °C 8.9 °C 1015.1 hPa ENE 1 km/h 3.2 km/h 97 % 0 mm
06:18 9.3 °C 8.9 °C 1015.1 hPa ENE 1.9 km/h 5.6 km/h 97 % 0 mm
06:23 9.4 °C 8.9 °C 1015.1 hPa NE 2.4 km/h 3.7 km/h 97 % 0 mm
06:28 9.4 °C 8.9 °C 1015.1 hPa ENE 1.4 km/h 3.7 km/h 97 % 0 mm
06:34 9.4 °C 8.9 °C 1015.1 hPa ENE 0.5 km/h 1.9 km/h 97 % 0 mm
06:39 9.4 °C 9 °C 1015.1 hPa ENE 3.1 km/h 6.4 km/h 97 % 0 mm
06:44 9.4 °C 9 °C 1015.1 hPa ENE 4.3 km/h 9.3 km/h 97 % 0 mm
06:49 9.4 °C 9 °C 1015.1 hPa NE 3.7 km/h 7.4 km/h 97 % 0 mm
06:54 9.5 °C 9.1 °C 1015.1 hPa ENE 4.2 km/h 7.4 km/h 97 % 0.25 mm
06:59 9.5 °C 9.1 °C 1015.5 hPa ENE 2.3 km/h 5.6 km/h 97 % 0.25 mm
07:04 9.5 °C 9.1 °C 1015.1 hPa ENE 1.3 km/h 5.6 km/h 97 % 0.25 mm
07:09 9.5 °C 9.1 °C 1015.1 hPa NE 4.3 km/h 7.4 km/h 97 % 0.25 mm
07:14 9.5 °C 9.1 °C 1015.1 hPa ENE 1.6 km/h 5.6 km/h 97 % 0.25 mm
07:19 9.6 °C 9.1 °C 1015.1 hPa East 6 km/h 8 km/h 97 % 0.25 mm
07:24 9.6 °C 9.1 °C 1015.5 hPa ENE 1 km/h 5.6 km/h 97 % 0.25 mm
07:30 9.6 °C 9.1 °C 1015.5 hPa ENE 2.4 km/h 9.3 km/h 97 % 0.25 mm
07:35 9.5 °C 9.1 °C 1015.1 hPa ENE 4.2 km/h 11.3 km/h 97 % 0.25 mm
07:36 9.5 °C 9.1 °C 1015.1 hPa East 6 km/h 11.1 km/h 97 % 0.25 mm
07:41 9.4 °C 9 °C 1015.1 hPa NE 6.4 km/h 13 km/h 97 % 0.25 mm
07:46 9.3 °C 8.9 °C 1015.1 hPa ENE 6.3 km/h 11.1 km/h 97 % 0.25 mm
07:51 9.2 °C 8.8 °C 1015.1 hPa East 6.9 km/h 11.3 km/h 97 % 0 mm
07:52 9.2 °C 8.8 °C 1015.1 hPa ENE 7.4 km/h 11.3 km/h 97 % 0 mm
07:57 9.2 °C 8.7 °C 1015.1 hPa ENE 5.8 km/h 8 km/h 97 % 0 mm
08:02 9.2 °C 8.7 °C 1015.1 hPa ENE 4.3 km/h 7.4 km/h 97 % 0 mm
08:07 9.2 °C 8.7 °C 1015.5 hPa ENE 5.6 km/h 14.8 km/h 97 % 0 mm
08:12 9.1 °C 8.7 °C 1015.1 hPa ENE 7.9 km/h 12.9 km/h 97 % 0 mm
08:18 9.1 °C 8.7 °C 1015.5 hPa NE 9.5 km/h 16.7 km/h 97 % 0 mm
08:23 9.1 °C 8.7 °C 1015.5 hPa NE 6.6 km/h 11.1 km/h 97 % 0 mm
08:28 9.2 °C 8.7 °C 1015.5 hPa ENE 6 km/h 11.1 km/h 97 % 0 mm
08:33 9.2 °C 8.7 °C 1015.5 hPa ENE 3.9 km/h 6.4 km/h 97 % 0 mm
08:38 9.2 °C 8.8 °C 1015.5 hPa ENE 6.8 km/h 11.1 km/h 97 % 0 mm
08:43 9.2 °C 8.8 °C 1015.1 hPa ENE 4.7 km/h 9.3 km/h 97 % 0 mm
08:48 9.3 °C 8.9 °C 1015.5 hPa ENE 3.4 km/h 11.3 km/h 97 % 0 mm
08:53 9.4 °C 9 °C 1015.5 hPa ENE 2.9 km/h 5.6 km/h 97 % 0 mm
08:58 9.5 °C 9.1 °C 1015.1 hPa ENE 3.4 km/h 5.6 km/h 97 % 0 mm
09:03 9.6 °C 9.2 °C 1015.1 hPa East 2.9 km/h 4.8 km/h 97 % 0 mm
09:08 9.7 °C 9.3 °C 1015.1 hPa ENE 3.2 km/h 7.4 km/h 97 % 0 mm
09:13 9.7 °C 9.3 °C 1015.1 hPa ENE 3.2 km/h 5.6 km/h 97 % 0 mm
09:18 9.8 °C 9.3 °C 1015.1 hPa ENE 2.9 km/h 7.4 km/h 97 % 0 mm
09:24 9.8 °C 9.3 °C 1015.1 hPa ENE 2.1 km/h 7.4 km/h 97 % 0 mm
09:29 9.8 °C 9.4 °C 1015.1 hPa ENE 2.4 km/h 9.3 km/h 97 % 0 mm
09:34 9.9 °C 9.4 °C 1014.8 hPa East 1.6 km/h 3.7 km/h 97 % 0 mm
09:39 9.9 °C 9.4 °C 1014.8 hPa NE 2.3 km/h 5.6 km/h 97 % 0 mm
09:44 10 °C 9.6 °C 1014.8 hPa ENE 2.7 km/h 5.6 km/h 97 % 0 mm
09:49 10.2 °C 9.9 °C 1014.4 hPa ENE 2.3 km/h 5.6 km/h 98 % 0 mm
09:54 10.3 °C 10 °C 1014.8 hPa ENE 1.9 km/h 7.4 km/h 98 % 0 mm
09:59 10.3 °C 9.9 °C 1014.8 hPa NE 3.5 km/h 5.6 km/h 97 % 0 mm
10:04 10.3 °C 9.9 °C 1014.8 hPa ENE 3.1 km/h 7.4 km/h 97 % 0 mm
10:09 10.3 °C 9.9 °C 1014.8 hPa ENE 4.7 km/h 5.6 km/h 97 % 0 mm
10:14 10.3 °C 9.9 °C 1014.4 hPa ENE 2.3 km/h 5.6 km/h 97 % 0 mm
10:19 10.3 °C 9.9 °C 1014.4 hPa ENE 1.8 km/h 5.6 km/h 97 % 0 mm
10:25 10.3 °C 9.9 °C 1014.4 hPa ENE 5.1 km/h 5.6 km/h 97 % 0 mm
10:30 10.4 °C 9.9 °C 1014.4 hPa ENE 2.3 km/h 5.6 km/h 97 % 0 mm
10:35 10.3 °C 9.9 °C 1014.4 hPa ENE 1.3 km/h 3.7 km/h 97 % 0 mm
10:40 10.4 °C 9.9 °C 1014.4 hPa ENE 3.2 km/h 5.6 km/h 97 % 0 mm
10:45 10.5 °C 10.1 °C 1014.1 hPa ENE 4.2 km/h 5.6 km/h 97 % 0 mm
10:50 10.6 °C 10.1 °C 1014.4 hPa ENE 2.1 km/h 5.6 km/h 97 % 0 mm
10:55 10.6 °C 10.1 °C 1014.4 hPa NE 2.6 km/h 5.6 km/h 97 % 0 mm
11:00 10.6 °C 10.2 °C 1014.4 hPa ENE 1.3 km/h 3.2 km/h 97 % 0 mm
11:05 10.7 °C 10.3 °C 1014.1 hPa ENE 2.7 km/h 5.6 km/h 97 % 0 mm
11:10 10.9 °C 10.4 °C 1014.1 hPa ENE 1.4 km/h 5.6 km/h 97 % 0 mm
11:15 11.1 °C 10.6 °C 1014.1 hPa ENE 1.3 km/h 3.7 km/h 97 % 0 mm
11:21 11.2 °C 10.7 °C 1014.1 hPa ENE 3.5 km/h 5.6 km/h 97 % 0 mm
11:26 11.2 °C 10.6 °C 1014.1 hPa NE 3.2 km/h 9.7 km/h 96 % 0 mm
11:31 11.3 °C 10.7 °C 1014.1 hPa ENE 3.2 km/h 8 km/h 96 % 0 mm
11:36 11.7 °C 11.1 °C 1014.1 hPa ENE 3.1 km/h 5.6 km/h 96 % 0 mm
11:41 11.8 °C 11.2 °C 1014.1 hPa Calm   8 km/h 96 % 0 mm
11:46 12.2 °C 11.4 °C 1014.1 hPa NE 2.4 km/h 6.4 km/h 95 % 0 mm
11:50 12.3 °C 11.3 °C 1013.8 hPa ENE 3.7 km/h 5.6 km/h 94 % 0 mm
11:56 12.5 °C 11.6 °C 1013.8 hPa NE 3.2 km/h 8 km/h 94 % 0 mm
12:01 12.8 °C 11.7 °C 1013.8 hPa ENE 4.7 km/h 7.4 km/h 93 % 0 mm
12:06 12.8 °C 11.4 °C 1013.4 hPa ENE 3.2 km/h 11.3 km/h 91 % 0 mm
12:11 12.9 °C 11.3 °C 1013.4 hPa ENE 4.8 km/h 11.3 km/h 90 % 0 mm
12:16 12.9 °C 11.3 °C 1013.4 hPa ENE 3.2 km/h 12.9 km/h 90 % 0 mm
12:21 13.1 °C 11.4 °C 1013.4 hPa NE 1.9 km/h 5.6 km/h 90 % 0 mm
12:26 13.3 °C 11.9 °C 1013.4 hPa NE 3.2 km/h 8 km/h 91 % 0 mm
12:31 13.6 °C 11.8 °C 1013.4 hPa NE 4.8 km/h 11.3 km/h 89 % 0 mm
12:36 13.6 °C 11.4 °C 1013.4 hPa NE 8.2 km/h 11.3 km/h 87 % 0 mm
12:41 13.5 °C 11.4 °C 1013.1 hPa ENE 8 km/h 14.5 km/h 87 % 0 mm
12:46 13.3 °C 11.2 °C 1013.1 hPa ENE 4.8 km/h 14.5 km/h 87 % 0 mm
12:51 13.1 °C 10.7 °C 1013.1 hPa ENE 8 km/h 12.9 km/h 86 % 0 mm
12:56 13 °C 11.1 °C 1013.1 hPa ENE 4.8 km/h 12.9 km/h 88 % 0 mm
13:01 13.4 °C 11.4 °C 1012.8 hPa NE 4.8 km/h 9.3 km/h 88 % 0 mm
13:06 13.6 °C 11.7 °C 1012.8 hPa ENE 3.7 km/h 7.4 km/h 88 % 0 mm
13:08 13.7 °C 11.6 °C 1012.8 hPa East 4.8 km/h 11.3 km/h 87 % 0 mm
13:13 13.6 °C 11.3 °C 1012.8 hPa ENE 7.4 km/h 11.1 km/h 86 % 0 mm
13:18 13.9 °C 11.8 °C 1012.8 hPa ENE 7.2 km/h 11.3 km/h 87 % 0 mm
13:23 14.2 °C 11.9 °C 1012.4 hPa ENE 5.3 km/h 11.1 km/h 86 % 0 mm
13:28 14.2 °C 11.6 °C 1012.4 hPa ENE 9.2 km/h 13 km/h 84 % 0 mm
13:33 14.2 °C 11.7 °C 1012.4 hPa ENE 7.6 km/h 13 km/h 85 % 0 mm
13:38 13.9 °C 11.3 °C 1012.4 hPa ENE 8.9 km/h 11.1 km/h 84 % 0 mm
13:43 13.9 °C 11.7 °C 1012.4 hPa East 3.7 km/h 5.6 km/h 86 % 0 mm
13:48 14 °C 11.5 °C 1012.1 hPa ENE 5.6 km/h 8 km/h 85 % 0 mm
13:53 14.2 °C 11.9 °C 1012.1 hPa ENE 7.9 km/h 14.8 km/h 86 % 0 mm
13:58 14.2 °C 11.7 °C 1012.1 hPa ENE 5.5 km/h 8 km/h 85 % 0 mm
14:03 14.3 °C 11.8 °C 1011.7 hPa ENE 6 km/h 11.3 km/h 85 % 0 mm
14:09 14.3 °C 11.8 °C 1011.7 hPa ENE 6.8 km/h 13 km/h 85 % 0 mm
14:14 14.4 °C 11.6 °C 1011.7 hPa ENE 13 km/h 17.7 km/h 83 % 0 mm
14:19 14.1 °C 11.4 °C 1011.4 hPa ENE 5.3 km/h 14.8 km/h 84 % 0 mm
14:24 14.3 °C 11.8 °C 1011.4 hPa ENE 9 km/h 14.8 km/h 85 % 0 mm
14:29 14 °C 11.3 °C 1011.1 hPa ENE 10.1 km/h 14.8 km/h 84 % 0 mm
14:34 13.9 °C 11.4 °C 1011.4 hPa ENE 7.6 km/h 11.3 km/h 85 % 0 mm
14:39 13.9 °C 11.8 °C 1011.1 hPa ENE 7.4 km/h 13 km/h 87 % 0 mm
14:44 14.3 °C 12.2 °C 1011.1 hPa ENE 4.3 km/h 5.6 km/h 87 % 0 mm
14:49 14.2 °C 11.7 °C 1010.7 hPa NE 10.5 km/h 14.5 km/h 85 % 0 mm
14:54 14.3 °C 11.9 °C 1010.7 hPa ENE 8 km/h 12.9 km/h 86 % 0 mm
15:00 14.2 °C 11.9 °C 1010.7 hPa East 6.8 km/h 13 km/h 86 % 0 mm
15:05 14.1 °C 11.6 °C 1010.7 hPa ENE 10.8 km/h 13 km/h 85 % 0 mm
15:10 14 °C 11.9 °C 1010.7 hPa ENE 3.5 km/h 13 km/h 87 % 0 mm
15:15 14.2 °C 12.1 °C 1010.4 hPa NE 7.4 km/h 13 km/h 87 % 0 mm
15:20 14.4 °C 12.3 °C 1010 hPa NE 9.8 km/h 13 km/h 87 % 0 mm
15:25 14.4 °C 12.3 °C 1010 hPa NE 6.6 km/h 11.1 km/h 87 % 0 mm
15:30 14.4 °C 12.1 °C 1010 hPa East 6.1 km/h 9.3 km/h 86 % 0 mm
15:35 14.7 °C 12.5 °C 1010 hPa East 3.7 km/h 11.3 km/h 87 % 0 mm
15:40 14.8 °C 12.7 °C 1009.7 hPa ENE 5.5 km/h 9.3 km/h 87 % 0 mm
15:45 14.9 °C 12.6 °C 1009.7 hPa NNE 6.1 km/h 9.3 km/h 86 % 0 mm
15:50 15.2 °C 12.7 °C 1009.7 hPa East 3.4 km/h 11.1 km/h 85 % 0 mm
15:55 15.2 °C 12.7 °C 1009.7 hPa North 4.5 km/h 9.3 km/h 85 % 0 mm
16:01 15.1 °C 12.6 °C 1009.4 hPa ENE 7.2 km/h 8 km/h 85 % 0 mm
16:06 15.3 °C 12.9 °C 1009.4 hPa ENE 2.3 km/h 6.4 km/h 86 % 0 mm
16:11 15.6 °C 13.1 °C 1009.4 hPa North 3.4 km/h 7.4 km/h 85 % 0 mm
16:16 15.8 °C 13.5 °C 1009 hPa North 1.8 km/h 6.4 km/h 86 % 0 mm
16:21 16.2 °C 13.7 °C 1009 hPa NNE 4.3 km/h 7.4 km/h 85 % 0 mm
16:26 16.5 °C 13.6 °C 1009 hPa NNW 4.8 km/h 6.4 km/h 83 % 0 mm
16:31 16.8 °C 13.9 °C 1008.7 hPa NNE 2.3 km/h 5.6 km/h 83 % 0 mm
16:36 17 °C 13.9 °C 1008.7 hPa North 1.3 km/h 5.6 km/h 82 % 0 mm
16:41 17.2 °C 14.1 °C 1008.7 hPa East 1.1 km/h 5.6 km/h 82 % 0 mm
16:47 17.3 °C 14.2 °C 1008.4 hPa NNE 6.6 km/h 6.6 km/h 82 % 0 mm
16:52 17.7 °C 15.3 °C 1008.4 hPa SSW 2.3 km/h 7.4 km/h 86 % 0 mm
16:57 18.3 °C 16.5 °C 1008.4 hPa WSW 0.6 km/h 7.4 km/h 89 % 0 mm
17:02 19.1 °C 17.4 °C 1008 hPa SSW 6.8 km/h 13 km/h 90 % 0 mm
17:07 19.9 °C 17.7 °C 1008 hPa South 0.8 km/h 3.7 km/h 87 % 0 mm
17:12 20.4 °C 17.8 °C 1008 hPa SSW 10.3 km/h 19.3 km/h 85 % 0 mm
17:17 20.9 °C 17.8 °C 1007.7 hPa SSW 5.1 km/h 9.7 km/h 82 % 0 mm
17:22 21.3 °C 17.9 °C 1007.7 hPa SE 1.3 km/h 7.4 km/h 81 % 0 mm
17:27 21.6 °C 18 °C 1007.3 hPa SW 5.5 km/h 14.8 km/h 80 % 0 mm
17:32 21.8 °C 18 °C 1007.3 hPa SSW 8.9 km/h 14.5 km/h 79 % 0 mm
17:37 22.1 °C 17.8 °C 1007.3 hPa South 3.7 km/h 13 km/h 77 % 0 mm
17:42 22.2 °C 17.8 °C 1007.3 hPa South 9 km/h 18.5 km/h 76 % 0 mm
17:47 22.3 °C 17.6 °C 1007.3 hPa South 10.5 km/h 18.5 km/h 75 % 0 mm
17:53 22.3 °C 17.4 °C 1007 hPa SSW 6.1 km/h 22.2 km/h 74 % 0 mm
17:58 22.2 °C 17.4 °C 1007 hPa South 7.4 km/h 17.7 km/h 74 % 0 mm
18:03 22.1 °C 17.3 °C 1007 hPa SW 5.8 km/h 11.1 km/h 74 % 0 mm
18:08 22.1 °C 17.4 °C 1007 hPa SW 7.9 km/h 14.8 km/h 75 % 0 mm
18:13 21.9 °C 17.3 °C 1007 hPa South 5.3 km/h 11.1 km/h 75 % 0 mm
18:18 21.8 °C 17.2 °C 1006.7 hPa SW 6.9 km/h 13 km/h 75 % 0 mm
18:23 21.8 °C 17.2 °C 1006.7 hPa South 7.6 km/h 20.4 km/h 75 % 0 mm
18:28 21.6 °C 17 °C 1006.3 hPa South 7.7 km/h 14.8 km/h 75 % 0 mm
18:33 21.4 °C 17.1 °C 1006.3 hPa SE 7.4 km/h 13 km/h 76 % 0 mm
18:38 21.3 °C 17.1 °C 1006.3 hPa SSW 6.1 km/h 11.1 km/h 77 % 0 mm
18:43 21.1 °C 16.9 °C 1006 hPa SSE 6.3 km/h 13 km/h 77 % 0 mm
18:49 20.9 °C 16.8 °C 1006 hPa South 5 km/h 18.5 km/h 77 % 0 mm
18:54 20.8 °C 16.6 °C 1006 hPa SSW 2.7 km/h 9.3 km/h 77 % 0 mm
18:59 20.7 °C 16.7 °C 1006 hPa South 6 km/h 11.1 km/h 78 % 0 mm
19:04 20.5 °C 16.6 °C 1005.6 hPa SW 9 km/h 13 km/h 78 % 0 mm
19:09 20.4 °C 16.6 °C 1005.6 hPa South 5.5 km/h 9.3 km/h 79 % 0 mm
19:14 20.3 °C 16.5 °C 1005.6 hPa South 2.9 km/h 11.3 km/h 79 % 0 mm
19:19 20.2 °C 16.4 °C 1005.6 hPa South 4.7 km/h 7.4 km/h 79 % 0 mm
19:24 20 °C 16.4 °C 1005.3 hPa South 7.6 km/h 18.5 km/h 80 % 0 mm
19:29 19.9 °C 16.3 °C 1005.6 hPa South 6.3 km/h 11.1 km/h 80 % 0 mm
19:34 19.9 °C 16.3 °C 1005.6 hPa South 8.9 km/h 24.1 km/h 80 % 0 mm
19:39 19.8 °C 16.2 °C 1005.6 hPa SSW 3.9 km/h 13 km/h 80 % 0 mm
19:44 19.7 °C 16.2 °C 1005.3 hPa SSW 8.4 km/h 18.5 km/h 80 % 0 mm
19:49 19.7 °C 16.1 °C 1005.3 hPa SSW 4.8 km/h 8 km/h 80 % 0 mm
19:54 19.7 °C 16.1 °C 1005.3 hPa South 9.5 km/h 16.7 km/h 80 % 0 mm
20:00 19.6 °C 16.3 °C 1005.3 hPa SSW 9 km/h 22.5 km/h 81 % 0 mm
20:05 19.6 °C 16.3 °C 1005.6 hPa South 7.7 km/h 13 km/h 81 % 0 mm
20:10 19.6 °C 16.3 °C 1005.6 hPa SSW 9 km/h 24.1 km/h 81 % 0 mm
20:15 19.6 °C 16.2 °C 1005.6 hPa SW 7.4 km/h 18.5 km/h 81 % 0 mm
20:20 19.6 °C 16.4 °C 1005.6 hPa South 6.1 km/h 14.8 km/h 82 % 0 mm
20:25 19.5 °C 16.3 °C 1005.6 hPa South 12.1 km/h 20.4 km/h 82 % 0 mm
20:30 19.4 °C 16.3 °C 1005.6 hPa South 10 km/h 16.1 km/h 82 % 0 mm
20:35 19.4 °C 16.3 °C 1006 hPa South 11.4 km/h 16.7 km/h 82 % 0 mm
20:40 19.3 °C 16.2 °C 1006 hPa South 4.5 km/h 9.3 km/h 82 % 0 mm
20:45 19.3 °C 16.1 °C 1006 hPa South 8.4 km/h 11.1 km/h 82 % 0 mm
20:50 19.2 °C 16.2 °C 1005.6 hPa SSW 8.9 km/h 14.8 km/h 83 % 0 mm
20:55 19 °C 16.1 °C 1005.6 hPa South 7.6 km/h 16.7 km/h 83 % 0 mm
21:00 18.9 °C 16.1 °C 1005.6 hPa South 7.4 km/h 16.7 km/h 84 % 0 mm
21:05 18.7 °C 15.9 °C 1005.6 hPa South 9.3 km/h 17.7 km/h 84 % 0 mm
21:11 18.7 °C 16.1 °C 1005.6 hPa SSW 7.4 km/h 20.4 km/h 85 % 0 mm
21:16 18.6 °C 16.2 °C 1005.6 hPa SSW 9.7 km/h 20.9 km/h 86 % 0 mm
21:21 18.4 °C 16.1 °C 1005.3 hPa SSW 4.8 km/h 19.3 km/h 86 % 0 mm
21:26 18.3 °C 16.1 °C 1005.3 hPa SSW 9.7 km/h 19.3 km/h 87 % 0 mm
21:31 18.2 °C 16.1 °C 1005 hPa South 9.7 km/h 19.3 km/h 87 % 0 mm
21:36 18.2 °C 16 °C 1005 hPa SE 7.1 km/h 11.1 km/h 87 % 0 mm
21:41 18.2 °C 16.2 °C 1005 hPa SSW 9.7 km/h 27.4 km/h 88 % 0 mm
21:46 18.2 °C 16.2 °C 1005.3 hPa SSW 9.7 km/h 27.4 km/h 88 % 0 mm
21:51 18.2 °C 16.3 °C 1005.3 hPa SSW 9.7 km/h 24.1 km/h 89 % 0 mm
21:56 18.2 °C 16.3 °C 1005.3 hPa South 8.4 km/h 18.5 km/h 89 % 0 mm
22:01 18.2 °C 16.3 °C 1005 hPa SW 6.9 km/h 14.8 km/h 89 % 0 mm
22:06 18.2 °C 16.4 °C 1005 hPa South 8.4 km/h 22.2 km/h 89 % 0 mm
22:11 18.2 °C 16.4 °C 1005 hPa SSW 8 km/h 16.7 km/h 89 % 0 mm
22:16 18.2 °C 16.4 °C 1005 hPa SSE 8.5 km/h 18.5 km/h 89 % 0 mm
22:21 18.2 °C 16.4 °C 1004.6 hPa SSE 11.7 km/h 18.5 km/h 89 % 0 mm
22:26 18.2 °C 16.3 °C 1004.6 hPa South 5.3 km/h 14.8 km/h 89 % 0 mm
22:31 18.2 °C 16.5 °C 1003.9 hPa South 11.1 km/h 18.5 km/h 90 % 0 mm
22:36 18.1 °C 16.4 °C 1003.9 hPa ENE 11.1 km/h 24.1 km/h 90 % 0 mm
22:41 18.1 °C 16.4 °C 1003.9 hPa SW 10.5 km/h 20.9 km/h 90 % 0 mm
22:46 18.1 °C 16.2 °C 1003.9 hPa South 15.1 km/h 29.6 km/h 89 % 0 mm
22:51 18.1 °C 16.2 °C 1003.9 hPa SSW 9.3 km/h 25.9 km/h 89 % 0 mm
22:56 18.1 °C 16.4 °C 1003.9 hPa South 8 km/h 11.1 km/h 90 % 0 mm
23:02 18.1 °C 16.4 °C 1003.9 hPa SW 11.4 km/h 22.2 km/h 90 % 0 mm
23:07 18.1 °C 16.4 °C 1003.9 hPa South 5.6 km/h 8 km/h 90 % 0 mm
23:12 18.1 °C 16.4 °C 1003.9 hPa SSW 8.9 km/h 18.5 km/h 90 % 0 mm
23:17 18.1 °C 16.4 °C 1003.6 hPa SW 8.9 km/h 18.5 km/h 90 % 0 mm
23:22 18.1 °C 16.4 °C 1003.9 hPa SSW 14 km/h 32.2 km/h 90 % 0 mm
23:27 18.1 °C 16.4 °C 1003.9 hPa South 11.9 km/h 20.4 km/h 90 % 0 mm
23:32 18.1 °C 16.4 °C 1003.6 hPa SSW 15.4 km/h 22.2 km/h 90 % 0 mm
23:37 18 °C 16.3 °C 1003.6 hPa South 10.5 km/h 16.7 km/h 90 % 0 mm
23:42 17.9 °C 16.4 °C 1003.6 hPa SSW 15.1 km/h 24.1 km/h 91 % 0 mm
23:48 17.9 °C 16.4 °C 1003.6 hPa South 12.1 km/h 20.4 km/h 91 % 0 mm
23:53 17.9 °C 16.2 °C 1003.3 hPa SSW 9 km/h 25.9 km/h 90 % 0 mm
23:58 17.8 °C 16.2 °C 1003.3 hPa SSW 12.4 km/h 20.4 km/h 90 % 0 mm
Crab Meadow Weather
Compliments of Weather Underground - 3 mb

Script developed by  Jim McMurry - jmcmurry@mwt.net Adapted for the template by  Wim van der Kuil - Leuven-Template.eu

Astronomy: One year on Mercury is only 88 days.